Location: Arroyo de Valdeoliva
(40.1604°N, 4.9878°W)
Time: 21:25:38
(UTC+00:00)

SPOT 1/Viking Rocket - Pass Details

Date: 14 March 2026
Orbit: 773 x 788 km, 98.2° (Epoch: 11 April)

Event Time Altitude Azimuth Distance (km) Brightness Sun altitude
Rises 18:55:37 0° 184° (S) 3,245 6.8 -6.6°
Reaches altitude 10° 18:58:03 10° 192° (SSW) 2,325 6.1 -7.0°
Maximum altitude 19:02:53 41° 262° (W) 1,122 5.1 -7.9°
Drops below altitude 10° 19:07:46 10° 332° (NNW) 2,350 6.5 -8.9°
Sets 19:10:14 0° 340° (NNW) 3,285 7.1 -9.3°
